Flag for Canada Weather past 2 weeks in Newmarket, Ontario, Canada

Now
66 °F

Overcast.


Feels Like: 66 °F
Forecast: 55 / 68 °F
Wind: 8 mph from Northwest

Location: Borden

Current Time: Jul 1, 2015 at 4:21:57 PM

Latest Report: Jul 1, 2015 at 4:00 PM


Visibility: 9 mi

Pressure: 29.84 "Hg

Humidity: 78%

Dew point: 59 °F

Location of NewmarketLocation

Historic Weather in Newmarket — Graph

°F

Newmarket temperature yesterday

Maximum temperature yesterday: 72 °F (at 12:00 PM)
Minimum temperature yesterday: 52 °F (at 4:57 AM)
Average temperature yesterday: 60 °F

Past Weeks' High & Low Weather Summary

 TemperatureHumidityPressure
High82 °F (Jun 22, 3:00 PM)100% (Jun 17, 12:00 AM)30.20 "Hg (Jun 17, 12:00 AM)
Low41 °F (Jun 20, 4:00 AM)33% (Jun 26, 2:00 PM)29.60 "Hg (Jun 23, 5:00 AM)
Average63 °F81%29.93 "Hg
* Reported Jun 16 3:00 PM — Jul 1 3:00 PM, Newmarket, Weather by CustomWeather, © 2015

Note: Actual official high and low records may vary slightly from our data, if they occured in-between our weather recording intervals... More about our weather records

Advertising

Newmarket weather history for previous 24 hours

 ConditionsComfort  
Time TempWeatherWind HumidityBarometerVisibility
3:00 PM
Wed, Jul 1
66 °FOvercast.10 mph78%29.83 "Hg9 mi
2:00 PM63 °FOvercast.7 mph88%29.83 "Hg9 mi
1:01 PM63 °FOvercast.12 mph83%29.81 "Hg9 mi
12:02 PM63 °FMostly cloudy.16 mph88%29.79 "Hg9 mi
11:00 AM66 °FPartly sunny.14 mph78%29.76 "Hg9 mi
10:00 AM63 °FOvercast.7 mph88%29.76 "Hg9 mi
9:00 AM63 °FLow clouds.8 mph94%29.75 "Hg9 mi
8:01 AM61 °FMostly cloudy.5 mph100%29.74 "Hg9 mi
7:00 AM59 °FLow clouds.5 mph100%29.74 "Hg9 mi
6:00 AM59 °FLow clouds.6 mph100%29.73 "Hg9 mi
5:50 AM59 °FLow clouds.6 mph100%29.72 "Hg9 mi
5:00 AM61 °FLow clouds.7 mph94%29.71 "Hg9 mi
4:51 AM61 °FLow clouds.7 mph100%29.71 "Hg9 mi
4:00 AM61 °FLow clouds.5 mph100%29.71 "Hg9 mi
3:56 AM61 °FLow clouds.5 mph100%29.71 "Hg9 mi
3:00 AM61 °FLow clouds.2 mph100%29.72 "Hg2 mi
2:58 AM61 °FLow clouds.2 mph100%29.72 "Hg2 mi
2:00 AM61 °FLow clouds.2 mph100%29.74 "Hg2 mi
1:56 AM61 °FMostly cloudy.2 mph100%29.74 "Hg2 mi
1:00 AM61 °FMostly cloudy.2 mph100%29.75 "Hg2 mi
12:57 AM61 °FMostly cloudy.No wind100%29.75 "Hg2 mi
12:02 AM61 °FLow clouds.3 mph100%29.75 "Hg3 mi
11:02 PM
Tue, Jun 30
61 °FLow clouds.2 mph100%29.77 "Hg2 mi
10:02 PM63 °FLow clouds.No wind100%29.77 "Hg2 mi
9:00 PM61 °FLow clouds.2 mph100%29.76 "Hg2 mi
8:54 PM61 °FLow clouds.3 mph100%29.76 "Hg2 mi
8:00 PM61 °FLow clouds.6 mph100%29.77 "Hg2 mi
7:00 PM63 °FLow clouds.8 mph100%29.77 "Hg7 mi
6:01 PM63 °FLow clouds.7 mph100%29.77 "Hg9 mi
5:02 PM63 °FLight rain. Low clouds.5 mph100%29.78 "Hg2 mi
4:00 PM63 °FLight rain. Overcast.6 mph94%29.80 "Hg3 mi
Weather by CustomWeather, © 2015

See weather overviewHow to use our weather pages